Weather in Yelenskiy

Russia / Kostroma Oblast     58°18′14″N   43°44′15″E
temp.,
°C
wind,
m/s
gust,
m/s
humid.,
%
clouds,
%
prec.,
mm/h
press.,
hPa
HPBL,
m
11 april, sun
sun1100:00−2s310920 0.0 1026164
03:00−2s311911 0.0 1026203
06:000ssw312891 0.0 1026257
09:00+6sw47695 0.0 1027436
12:00+9wsw46649 0.0 1029971
15:00+10w3568100 0.0 10301351
18:00+6ne1291100 0.0 103245
21:00+4sse1196100 0.0 103417
12 april, mon
mon1200:00+4ese1196100 0.0 103512
03:00+3ese1197100 0.0 103618
06:00+4sse2394100 0.0 103668
09:00+8sse3577100 0.0 1037265
12:00+12sse35615 0.0 1036885
15:00+14se345697 0.0 10351253
18:00+10se3875100 0.0 1033252
21:00+7se31186100 0.0 1033360
13 april, tue
tue1300:00+6se31089100 0.0 1032318
03:00+5se3994100 0.0 1030295
06:00+5sse3997100 0.0 1029268
09:00+11s487684 0.0 1027402
12:00+17s595440 0.0 1026890
15:00+18ssw5950100 0.0 10241333
18:00+15s41061100 0.0 1023446
21:00+11s31184100 0.0 1023247
14 april, wed
wed1400:00+9s3117952 0.0 1023245
03:00+7s3981100 0.0 1022169
06:00+7ssw2107879 0.0 1021209
09:00+13ssw4859100 0.0 1020393
12:00+17ssw5947100 0.0 1020818
15:00+18ssw41251100 0.0 10191496
18:00+15ssw3762100 0.0 1018253
21:00+12wnw2279100 0.0 101950
15 april, thu
thu1500:00+10nne3795100 0.0 1018302
03:00+8nne379299 0.1 1018430
06:00+6nne3891100 1.2 1019384
09:00+5nne3792100 2.6 1019442
12:00+5nne3689100 0.3 1019405
15:00+6ne1381100 0.4 1018368
18:00+6n2481100 0.1 1018311
21:00+4nnw2779100 0.2 1017267